Location: Berlin
(38.3226°N, 75.2177°W)
Time: 17:25:33
(UTC+00:00)

Cosmos 1346 Rocket - Pass Details

Date: 26 October 2020
Orbit: 535 x 543 km, 81.2° (Epoch: 03 December)

Event Time Altitude Azimuth Distance (km) Brightness Sun altitude
Rises 00:24:26 0° 344° (NNW) 2,711 6.6 -27.2°
Reaches altitude 10° 00:26:39 10° 339° (NNW) 1,815 5.7 -27.6°
Enters shadow 00:28:51 29° 321° (NW) 1,014 4.5 -28.1°
